Location: North Evanston
(42.0634°N, 87.6976°W)
Time: 20:43:31
(UTC+00:00)

Vanguard 2 Rocket - Pass Details

Date: 11 May 2026
Orbit: 553 x 3286 km, 32.9° (Epoch: 6 June)

Event Time Altitude Azimuth Distance (km) Brightness Sun altitude
Rises 15:16:13 0° 197° (SSW) 5,163 10.8 49.9°
Reaches altitude 10° 15:20:06 10° 184° (S) 4,572 10.8 50.6°
Maximum altitude 15:30:21 25° 135° (SE) 4,289 11.6 52.3°
Drops below altitude 10° 15:43:45 10° 90° (E) 6,119 11.7 54.4°
Sets 15:50:03 0° 79° (E) 7,258 11.8 55.4°
